sat.trackr.live / text

‹ back to catalog

STARLINK-37277

NORAD 68751 · 2026-082Z

PAYLOAD ACTIVE UNKNOWN

§ Identity

Operator
Country
US
Launch date
2026-04-15
Launch site
AFWTR
Launch vehicle
Mass (kg)
RCS (m²)

Purposes: comms

External: N2YO · Heavens-Above · Gunter

§ Orbital elements

Epoch: 2026-09-19T10:21:12.080448Z

Period
93.91 min
Inclination
97.2842°
Eccentricity
0.0002387
Mean motion
15.33461679 rev/d
Perigee alt
463.9 km
Apogee alt
467.1 km
Semi-major
6,843.6 km
B*
7.2818e-4
RAAN
124.6282°
Arg perigee
102.6478°
Mean anomaly
257.5031°
Rev number
2,414

§ Raw data

STARLINK-372771 68751U 26082Z   26262.43138982  .00023520  00000+0  72818-3 0  99912 68751  97.2842 124.6282 0002387 102.6478 257.5031 15.33461679 24143

JSON: /api/v1/satellites/68751 · /tle

For live sub-satellite position, see the globe view (requires WebGL).

§ Visibility from observer

Set your observer location to see the next 7 days of passes ≥ 10°. The values pass through the URL so the page stays shareable.

No JS? Fill the form by hand. The geolocation button needs JavaScript.